Date String (YYYY-MM-DD hh:mm:ss) UTC,Instrument flags,Ambient pressure (hPa),Sample flow (lpm),Bypass flow (lpm),Sample temperature (°C),Ambient temperature (°C),ASC tube jacket temperature (°C),LED temperature (°C),Box temperature (°C),Sample RH (%),Span deviation,Mass concentration (μg/m³),Mass concentration (μg/m³),Mass concentration (μg/m³)
DateTimeUTC,F1_M11,P_M11,Q1_M11,Q2_M11,T1_M11,T2_M11,T3_M11,T4_M11,T5_M11,U1_M11,ZSPAN_M11,X0_M11,X2_M11,X1_M11
2022-04-06 01:00:00,,0818.6,5.00,0.00,24.0,23.1,00.0,32.9,25.9,07.4,0000.0,0014.10,0003.30,0001.03
2022-04-06 01:01:00,,0818.3,4.99,0.00,24.0,23.1,00.0,32.9,25.8,07.4,0000.0,0014.82,0003.27,0001.03
2022-04-06 01:02:00,,0818.2,5.00,0.00,24.0,23.1,00.0,32.9,25.8,07.7,0000.0,0015.68,0003.24,0001.03
2022-04-06 01:03:00,,0818.4,5.02,0.00,24.0,23.1,00.0,32.9,25.9,07.8,0000.0,0016.66,0003.24,0001.02
2022-04-06 01:04:00,,0818.4,5.00,0.00,24.0,23.1,00.0,32.9,25.8,07.8,0000.0,0017.52,0003.23,0001.01
2022-04-06 01:05:00,,0818.4,4.99,0.00,24.0,23.1,00.0,32.9,25.7,07.3,0000.0,0018.22,0003.19,0001.01
2022-04-06 01:06:00,,0818.3,4.99,0.00,24.0,23.0,00.0,32.9,25.6,06.3,0000.0,0018.61,0003.28,0001.03
2022-04-06 01:07:00,,0818.4,5.00,0.00,24.0,23.0,00.0,32.9,25.6,06.1,0000.0,0018.20,0003.32,0001.03
2022-04-06 01:08:00,,0818.4,5.01,0.00,24.0,23.0,00.0,32.9,25.6,06.0,0000.0,0017.43,0003.34,0001.03
2022-04-06 01:09:00,,0818.4,5.02,0.00,24.0,23.0,00.0,32.9,25.6,06.0,0000.0,0017.96,0003.34,0001.04
2022-04-06 01:10:00,,0818.5,5.00,0.00,24.0,23.0,00.0,32.9,25.6,06.0,0000.0,0017.92,0003.32,0001.04
2022-04-06 01:11:00,,0818.5,5.00,0.00,23.9,22.9,00.0,33.0,25.6,06.1,0000.0,0017.08,0003.22,0001.03
2022-04-06 01:12:00,,0818.5,5.00,0.00,23.9,22.9,00.0,32.9,25.6,06.0,0000.0,0016.09,0003.21,0001.03
2022-04-06 01:13:00,,0818.5,5.00,0.00,23.9,22.9,00.0,32.9,25.6,06.0,0000.0,0015.34,0003.27,0001.04
2022-04-06 01:14:00,,0818.5,5.00,0.00,23.9,22.9,00.0,32.9,25.6,06.0,0000.0,0014.26,0003.30,0001.05
2022-04-06 01:15:00,,0818.5,5.02,0.00,23.9,22.8,00.0,32.9,25.5,06.1,0000.0,0013.83,0003.27,0001.05
2022-04-06 01:16:00,,0818.4,4.99,0.00,23.9,22.8,00.0,32.9,25.5,06.1,0000.0,0013.76,0003.33,0001.03
2022-04-06 01:17:00,,0818.6,4.99,0.00,23.9,22.8,00.0,32.9,25.5,06.3,0000.0,0014.61,0003.27,0001.01
2022-04-06 01:18:00,,0818.8,5.00,0.00,23.9,22.8,00.0,32.9,25.6,06.4,0000.0,0015.48,0003.28,0001.01
2022-04-06 01:19:00,,0818.7,5.01,0.00,23.9,22.8,00.0,32.9,25.6,06.4,0000.0,0016.13,0003.32,0001.01
2022-04-06 01:20:00,,0818.7,5.01,0.00,23.9,22.9,00.0,32.9,25.6,06.3,0000.0,0015.81,0003.41,0001.01
2022-04-06 01:21:00,,0818.8,4.99,0.00,23.9,22.9,00.0,32.9,25.6,06.3,0000.0,0015.75,0003.51,0001.01
2022-04-06 01:22:00,,0818.8,5.00,0.00,23.9,22.9,00.0,32.9,25.6,06.4,0000.0,0016.10,0003.59,0001.02
2022-04-06 01:23:00,,0818.8,5.00,0.00,23.9,22.8,00.0,32.9,25.5,06.4,0000.0,0016.74,0003.64,0001.02
2022-04-06 01:24:00,,0818.8,5.00,0.00,23.9,22.8,00.0,32.9,25.5,06.4,0000.0,0016.18,0003.63,0001.02
2022-04-06 01:25:00,,0818.9,5.01,0.00,23.9,22.7,00.0,32.9,25.5,06.3,0000.0,0017.47,0003.61,0001.01
2022-04-06 01:26:00,,0818.9,4.98,0.00,23.9,22.7,00.0,32.9,25.5,06.4,0000.0,0018.15,0003.67,0001.01
2022-04-06 01:27:00,,0819.0,5.02,0.00,23.9,22.7,00.0,32.9,25.5,06.4,0000.0,0017.80,0003.63,0001.02
2022-04-06 01:28:00,,0818.9,4.99,0.00,23.9,22.7,00.0,32.9,25.5,06.4,0000.0,0017.76,0003.69,0001.02
2022-04-06 01:29:00,,0818.9,5.00,0.00,23.9,22.7,00.0,32.9,25.5,06.1,0000.0,0017.27,0003.73,0001.04
2022-04-06 01:30:00,,0819.0,4.99,0.00,23.8,22.7,00.0,32.9,25.5,06.1,0000.0,0017.38,0003.74,0001.02
2022-04-06 01:31:00,,0819.0,4.99,0.00,23.8,22.7,00.0,32.9,25.5,06.2,0000.0,0016.95,0003.69,0001.02
2022-04-06 01:32:00,,0819.0,5.00,0.00,23.8,22.7,00.0,32.9,25.5,06.3,0000.0,0017.22,0003.65,0001.01
2022-04-06 01:33:00,,0819.1,4.99,0.00,23.8,22.7,00.0,32.9,25.5,06.3,0000.0,0017.41,0003.63,0001.00
2022-04-06 01:34:00,,0819.1,5.01,0.00,23.8,22.7,00.0,32.9,25.5,06.3,0000.0,0017.44,0003.63,0001.01
2022-04-06 01:35:00,,0819.0,4.99,0.00,23.8,22.7,00.0,32.9,25.5,06.3,0000.0,0017.46,0003.65,0001.00
2022-04-06 01:36:00,,0819.0,4.98,0.00,23.7,22.7,00.0,32.8,25.5,06.2,0000.0,0017.01,0003.72,0001.01
2022-04-06 01:37:00,,0819.1,5.00,0.00,23.7,22.7,00.0,32.8,25.3,06.2,0000.0,0016.78,0003.71,0001.01
2022-04-06 01:38:00,,0819.1,5.02,0.00,23.7,22.6,00.0,32.8,25.3,06.3,0000.0,0016.39,0003.71,0001.01
2022-04-06 01:39:00,,0819.2,5.00,0.00,23.7,22.6,00.0,32.8,25.2,06.2,0000.0,0015.79,0003.67,0001.02
2022-04-06 01:40:00,,0819.3,4.99,0.00,23.6,22.6,00.0,32.8,25.2,06.2,0000.0,0015.39,0003.59,0001.01
2022-04-06 01:41:00,,0819.2,5.00,0.00,23.6,22.6,00.0,32.8,25.2,06.2,0000.0,0016.24,0003.57,0001.02
2022-04-06 01:42:00,,0819.2,5.00,0.00,23.6,22.6,00.0,32.7,25.2,06.2,0000.0,0016.20,0003.54,0001.03
2022-04-06 01:43:00,,0819.3,5.00,0.00,23.5,22.5,00.0,32.7,25.1,06.2,0000.0,0016.22,0003.52,0001.02
2022-04-06 01:44:00,,0819.3,5.00,0.00,23.5,22.5,00.0,32.7,25.1,06.3,0000.0,0016.21,0003.54,0001.02
2022-04-06 01:45:00,,0819.4,4.99,0.00,23.5,22.5,00.0,32.7,25.1,06.3,0000.0,0016.73,0003.57,0001.00
2022-04-06 01:46:00,,0819.5,5.02,0.00,23.5,22.5,00.0,32.7,25.1,06.4,0000.0,0016.51,0003.55,0000.99
2022-04-06 01:47:00,,0819.5,4.99,0.00,23.4,22.5,00.0,32.6,25.1,06.4,0000.0,0016.96,0003.51,0000.99
2022-04-06 01:48:00,,0819.5,5.01,0.00,23.4,22.5,00.0,32.6,25.1,06.3,0000.0,0016.91,0003.48,0000.98
2022-04-06 01:49:00,,0819.5,5.00,0.00,23.5,22.5,00.0,32.6,25.1,06.2,0000.0,0017.49,0003.53,0000.99
2022-04-06 01:50:00,,0819.5,4.99,0.00,23.5,22.5,00.0,32.6,25.1,06.3,0000.0,0018.19,0003.53,0000.98
2022-04-06 01:51:00,,0819.6,5.00,0.00,23.4,22.5,00.0,32.6,25.1,06.3,0000.0,0019.20,0003.57,0000.98
2022-04-06 01:52:00,,0819.7,5.00,0.00,23.4,22.5,00.0,32.6,25.1,06.3,0000.0,0017.81,0003.52,0000.97
2022-04-06 01:53:00,,0819.8,5.00,0.00,23.4,22.5,00.0,32.6,25.1,06.3,0000.0,0017.19,0003.52,0000.95
2022-04-06 01:54:00,,0819.8,5.01,0.00,23.4,22.5,00.0,32.6,25.1,06.2,0000.0,0017.34,0003.54,0000.97
2022-04-06 01:55:00,,0819.9,5.00,0.00,23.4,22.5,00.0,32.5,25.1,06.2,0000.0,0017.63,0003.53,0000.97
2022-04-06 01:56:00,,0819.9,4.99,0.00,23.5,22.5,00.0,32.5,25.2,06.3,0000.0,0016.67,0003.52,0000.96
2022-04-06 01:57:00,,0819.9,5.00,0.00,23.5,22.5,00.0,32.5,25.1,06.3,0000.0,0016.27,0003.50,0000.97
2022-04-06 01:58:00,,0819.9,5.00,0.00,23.5,22.5,00.0,32.5,25.2,06.3,0000.0,0016.24,0003.49,0000.98
2022-04-06 01:59:00,,0819.9,5.02,0.00,23.5,22.6,00.0,32.5,25.3,06.4,0000.0,0015.45,0003.49,0000.98
